CAPE
357 43 3 0 0 0 0 0 0 0 0 0 0 0 0 0 0 0 0 0 0 0 0 0 0 0 0 0 0 0 0 0 0 0 0 0 0 0 0 0 0 0 0
383 59 0 0 0 0 0 0 0 0 0 0 0 0 0 0 0 0 0 0 0 0 0 0 0 0 0 0 0 0 0 0 2 0 0 0 0 0 0 0 0 0 0
392 46 2 0 0 0 6 0 0 0 0 0 0 0 0 0 0 0 0 0 0 0 0 0 0 0 0 0 0 1 2 1 4 2 1 2 3 0 0 0 0 0 0
374 133 4 0 0 0 6 0 0 0 0 0 0 0 0 0 0 0 0 0 0 0 0 0 0 0 3 0 0 0 1 3 4 3 3 2 1 5 0 0 0 0 0
406 144 6 0 0 0 0 40 14 0 0 0 0 0 0 0 0 2 0 1 0 5 0 0 0 0 0 0 12 36 7 23 18 1 4 3 1 3 1 0 2 0 0
333 101 0 6 2 0 0 0 0 0 0 9 7 27 9 20 22 12 16 14 7 10 12 0 0 0 0 2 39 43 88 57 43 40 3 4 4 2 1 3 2 1 2
310 3 0 0 0 0 0 0 0 3 1 8 30 50 66 95 42 0 0 35 0 2 0 0 0 0 0 1 0 4 22 31 75 88 1 6 7 1 9 10 5 4 4
229 7 0 0 0 0 0 0 0 8 0 10 69 64 102 139 62 3 0 15 20 0 0 0 0 0 0 0 0 0 0 0 0 0 0 0 4 8 12 8 0 5 10
228 69 0 0 0 0 6 1 0 0 5 41 89 135 112 144 58 0 0 0 0 0 0 0 0 0 0 0 0 0 0 0 0 0 0 0 2 4 6 8 7 11 10
247 181 85 1 0 42 3 0 5 2 19 6 23 23 49 80 10 0 0 0 0 0 0 0 0 0 0 0 0 0 0 0 0 0 0 0 3 3 1 2 2 9 6
269 273 170 141 97 17 0 3 2 0 1 0 15 4 6 2 3 0 0 0 0 0 0 0 0 0 0 0 0 0 0 0 2 2 2 0 2 2 0 0 4 4 4
161 120 34 0 21 3 18 0 0 0 0 0 6 3 0 2 0 0 0 0 0 0 0 0 0 0 0 0 0 0 0 0 1 1 0 0 4 3 1 4 6 5 7
4 4 58 28 21 0 0 0 0 0 0 0 13 25 57 0 0 0 1 0 0 0 0 0 0 0 0 0 0 0 0 0 0 0 0 0 1 3 7 7 6 2 0
0 0 0 0 0 0 0 0 0 0 0 6 39 22 2 1 0 0 0 0 0 0 0 0 0 0 0 0 0 0 0 0 0 0 0 0 0 1 1 6 7 2 2
0 0 0 0 0 1 2 2 2 2 0 10 1 1 0 1 0 0 0 0 0 0 0 0 0 0 0 0 0 0 0 0 0 0 0 0 0 0 0 2 7 1 3
0 0 0 0 1 2 3 2 0 0 1 1 0 0 0 0 0 0 0 0 0 0 0 0 0 0 0 0 0 0 0 0 0 0 0 0 0 0 0 1 5 4 2
0 0 0 0 0 0 2 1 0 0 0 0 0 0 0 0 0 0 0 0 0 0 0 0 0 0 0 0 0 0 0 0 0 0 0 0 0 0 0 0 4 6 3
0 0 0 0 0 0 2 0 0 0 0 0 0 0 0 0 0 0 0 0 0 0 0 0 0 0 0 0 0 0 0 0 0 0 0 0 0 0 0 0 0 4 5
0 0 0 0 0 0 1 0 0 0 0 0 0 0 0 0 0 0 0 0 0 0 0 0 0 0 0 0 0 0 0 0 0 0 0 0 0 0 0 0 0 0 1
0 0 0 0 0 0 0 0 0 0 0 0 0 0 0 0 0 0 0 0 0 0 0 0 0 0 0 0 0 0 0 0 0 0 0 0 0 0 0 0 0 0 0
0 0 0 0 0 0 0 0 0 0 0 0 0 0 0 0 0 0 0 0 0 0 0 0 0 0 0 0 0 0 0 0 0 0 0 0 0 0 0 0 0 0 0
0 0 0 0 0 0 0 0 0 0 0 0 0 0 0 0 0 0 0 0 0 0 0 0 0 0 0 0 0 0 0 0 0 0 0 0 0 0 0 0 0 0 0
0 0 0 0 0 0 0 0 0 0 0 0 0 0 0 0 0 0 0 0 0 0 0 0 0 0 0 0 0 0 0 0 0 0 0 0 0 0 0 0 0 0 0
0 0 0 0 0 0 0 0 0 0 0 0 0 0 0 0 0 0 0 0 0 0 0 0 0 0 0 0 0 0 0 0 0 0 0 0 0 0 0 0 0 0 0
0 0 0 0 0 0 0 0 0 0 0 0 0 0 0 0 0 0 0 0 0 0 0 0 0 0 0 0 0 0 0 0 0 0 0 0 0 0 0 0 0 0 0
0 0 0 0 0 0 0 0 0 0 0 0 0 0 0 0 0 0 0 0 0 0 0 0 0 0 0 0 0 0 0 0 0 0 0 0 0 0 0 0 0 0 0
CIN
-623 -738 -284 -0 -0 -0 -0 -0 -0 -0 -0 -0 -0 -0 -0 -0 -0 -0 -0 -0 -0 -0 -0 -0 -0 -0 -0 -0 -0 -0 -0 -0 -0 -0 -0 -0 -0 -0 -0 -0 -0 -0 -0
-634 -751 -0 -0 -0 -0 -0 -0 -0 -0 -0 -0 -0 -0 -0 -0 -0 -0 -0 -0 -0 -0 -0 -0 -0 -0 -0 -0 -0 -0 -0 -0 -0 -0 -0 -0 -0 -0 -0 -0 -0 -0 -0
-636 -755 -695 -0 -0 -0 -699 -0 -0 -0 -0 -0 -0 -0 -0 -0 -0 -0 -0 -0 -0 -0 -0 -0 -0 -0 -0 -0 -0 -0 -0 -0 -0 -0 -0 -0 -0 -0 -0 -0 -0 -0 -0
-644 -693 -828 -0 -0 -0 -337 -0 -0 -0 -0 -0 -0 -0 -0 -0 -0 -0 -0 -0 -0 -0 -0 -0 -0 -0 -57 -0 -0 -0 -0 -0 -0 -0 -0 -0 -0 -0 -0 -0 -0 -0 -0
-635 -690 -259 -0 -0 -0 -0 -171 -246 -0 -0 -0 -0 -0 -0 -0 -0 -109 -23 -174 -0 -29 -0 -0 -0 -0 -0 -0 -73 -66 -100 -69 -55 -0 -0 -0 -0 -0 -0 -0 -0 -0 -0
-585 -626 -0 -656 -581 -0 -0 -0 -0 -2 -0 -322 -303 -317 -279 -252 -213 -189 -199 -212 -145 -174 -156 -0 -0 -0 -0 -37 -102 -65 -42 -37 -31 -22 -0 -0 -0 -0 -0 -0 -0 -0 -0
-573 -503 -0 -0 -0 -0 -0 -0 -85 -358 -109 -296 -290 -280 -218 -258 -233 -24 -0 -150 -0 -145 -13 -0 -0 -0 -0 -113 -0 -86 -116 -44 -25 -1 -0 -1 -0 -0 -0 -0 -0 -0 -14
-627 -422 -0 -0 -0 -0 -0 -0 -0 -316 -0 -262 -275 -239 -254 -235 -274 -95 -0 -161 -171 -0 -0 -0 -0 -0 -0 -0 -0 -0 -0 -0 -0 -0 -0 -0 -0 -0 -0 -0 -0 -0 -0
-664 -704 -0 -0 -0 -0 -0 -1 -0 -0 -232 -253 -258 -221 -227 -243 -298 -0 -0 -0 -0 -0 -0 -0 -0 -0 -0 -0 -0 -0 -0 -0 -0 -0 -0 -0 -0 -0 -0 -0 -0 -24 -0
-609 -596 -571 -82 -0 -342 -137 -302 -258 -297 -198 -169 -176 -210 -179 -174 -219 -0 -0 -0 -0 -0 -0 -0 -0 -0 -0 -0 -0 -0 -0 -0 -0 -0 -0 -0 -0 -0 -0 -0 -5 -0 -0
-600 -474 -462 -409 -350 -288 -0 -335 -205 -0 -263 -0 -222 -213 -127 -112 -71 -0 -0 -0 -0 -0 -0 -0 -0 -0 -0 -0 -0 -0 -0 -0 -0 -0 -0 -0 -0 -0 -0 -0 -0 -0 -0
-565 -541 -549 -25 -392 -225 -328 -0 -0 -188 -0 -0 -291 -207 -0 -116 -0 -0 -0 -0 -0 -0 -0 -0 -0 -0 -0 -0 -0 -0 -0 -0 -0 -0 -0 -0 -0 -0 -0 -0 -0 -0 -4
-633 -633 -479 -392 -352 -0 -21 -0 -0 -0 -0 -0 -266 -196 -144 -0 -0 -0 -0 -0 -0 -0 -0 -0 -0 -0 -0 -0 -0 -0 -0 -0 -0 -0 -0 -0 -0 -0 -0 -0 -0 -2 -1
-0 -0 -0 -0 -0 -0 -0 -0 -0 -0 -0 -310 -207 -176 -0 -0 -0 -0 -0 -0 -0 -0 -0 -0 -0 -0 -0 -0 -0 -0 -0 -0 -0 -0 -0 -0 -0 -0 -0 -0 -0 -0 -0
-0 -0 -0 -0 -0 -0 -0 -0 -0 -0 -0 -241 -93 -0 -0 -0 -0 -0 -0 -0 -0 -0 -0 -0 -0 -0 -0 -0 -0 -0 -0 -0 -0 -0 -0 -0 -0 -0 -0 -0 -0 -0 -0
-0 -0 -0 -0 -0 -0 -0 -0 -0 -0 -0 -0 -0 -0 -0 -0 -0 -0 -0 -0 -0 -0 -0 -0 -0 -0 -0 -0 -0 -0 -0 -0 -0 -0 -0 -0 -0 -0 -0 -0 -0 -0 -0
-0 -0 -0 -0 -0 -0 -0 -0 -0 -0 -0 -0 -0 -0 -0 -0 -0 -0 -0 -0 -0 -0 -0 -0 -0 -0 -0 -0 -0 -0 -0 -0 -0 -0 -0 -0 -0 -0 -0 -0 -0 -0 -0
-0 -0 -0 -0 -0 -0 -0 -0 -0 -0 -0 -0 -0 -0 -0 -0 -0 -0 -0 -0 -0 -0 -0 -0 -0 -0 -0 -0 -0 -0 -0 -0 -0 -0 -0 -0 -0 -0 -0 -0 -0 -0 -0
-0 -0 -0 -0 -0 -0 -0 -0 -0 -0 -0 -0 -0 -0 -0 -0 -0 -0 -0 -0 -0 -0 -0 -0 -0 -0 -0 -0 -0 -0 -0 -0 -0 -0 -0 -0 -0 -0 -0 -0 -0 -0 -0
-0 -0 -0 -0 -0 -0 -0 -0 -0 -0 -0 -0 -0 -0 -0 -0 -0 -0 -0 -0 -0 -0 -0 -0 -0 -0 -0 -0 -0 -0 -0 -0 -0 -0 -0 -0 -0 -0 -0 -0 -0 -0 -0
-0 -0 -0 -0 -0 -0 -0 -0 -0 -0 -0 -0 -0 -0 -0 -0 -0 -0 -0 -0 -0 -0 -0 -0 -0 -0 -0 -0 -0 -0 -0 -0 -0 -0 -0 -0 -0 -0 -0 -0 -0 -0 -0
-0 -0 -0 -0 -0 -0 -0 -0 -0 -0 -0 -0 -0 -0 -0 -0 -0 -0 -0 -0 -0 -0 -0 -0 -0 -0 -0 -0 -0 -0 -0 -0 -0 -0 -0 -0 -0 -0 -0 -0 -0 -0 -0
-0 -0 -0 -0 -0 -0 -0 -0 -0 -0 -0 -0 -0 -0 -0 -0 -0 -0 -0 -0 -0 -0 -0 -0 -0 -0 -0 -0 -0 -0 -0 -0 -0 -0 -0 -0 -0 -0 -0 -0 -0 -0 -0
-0 -0 -0 -0 -0 -0 -0 -0 -0 -0 -0 -0 -0 -0 -0 -0 -0 -0 -0 -0 -0 -0 -0 -0 -0 -0 -0 -0 -0 -0 -0 -0 -0 -0 -0 -0 -0 -0 -0 -0 -0 -0 -0
-0 -0 -0 -0 -0 -0 -0 -0 -0 -0 -0 -0 -0 -0 -0 -0 -0 -0 -0 -0 -0 -0 -0 -0 -0 -0 -0 -0 -0 -0 -0 -0 -0 -0 -0 -0 -0 -0 -0 -0 -0 -0 -0
-0 -0 -0 -0 -0 -0 -0 -0 -0 -0 -0 -0 -0 -0 -0 -0 -0 -0 -0 -0 -0 -0 -0 -0 -0 -0 -0 -0 -0 -0 -0 -0 -0 -0 -0 -0 -0 -0 -0 -0 -0 -0 -0
Wind_Speed
14 12 11 10 10 9 9 8 7 6 6 6 5 5 5 5 4 4 4 4 5 5 5 6 8 5 5 5 5 5 6 5 6 5 4 4 6 8 9 9 10 10 10
14 13 12 11 12 10 10 8 7 7 5 6 6 6 5 5 4 5 5 4 5 5 7 6 8 4 7 7 6 9 7 6 5 11 7 7 7 9 10 11 10 10 10
14 14 13 12 7 7 4 5 6 5 5 6 7 7 8 7 6 5 5 6 6 7 7 7 9 7 7 6 7 7 6 6 7 7 10 8 10 10 9 9 10 11 10
14 14 14 13 8 10 4 6 5 2 5 8 8 8 8 7 6 6 5 5 6 7 7 7 7 7 9 7 6 8 7 7 7 7 8 10 9 9 8 10 10 8 10
14 13 10 12 12 13 7 7 5 9 9 7 7 6 7 5 5 6 5 6 6 7 6 6 6 7 11 9 5 7 7 7 7 8 9 9 10 9 10 9 10 11 11
10 12 15 16 13 16 17 16 14 14 11 10 10 9 10 6 9 10 8 6 6 7 7 5 4 7 8 11 11 10 10 8 9 7 9 10 13 10 10 10 10 12 14
11 13 16 17 17 19 17 17 15 13 12 11 11 8 9 6 9 10 11 5 6 7 6 5 5 3 5 6 8 9 9 9 11 9 10 11 12 13 12 12 11 13 16
13 16 17 18 19 17 15 14 15 11 9 8 8 10 9 7 8 9 7 7 7 6 5 5 5 6 6 5 7 7 6 6 7 6 8 12 13 13 13 12 14 16 16
14 16 18 18 17 14 10 9 8 6 5 7 6 10 9 8 7 10 7 4 5 5 3 3 4 6 5 6 4 5 7 8 6 12 15 17 19 23 21 10 12 13 17
13 14 15 14 16 13 8 7 3 3 3 2 5 4 7 7 9 12 6 2 4 3 2 3 4 5 3 2 2 3 6 8 9 12 12 11 12 13 20 12 11 14 18
11 11 12 11 12 8 9 6 6 7 7 9 11 8 6 8 7 9 6 4 4 3 3 2 2 4 5 1 2 3 5 7 11 9 10 9 10 11 10 11 14 14 18
8 10 10 9 7 8 10 8 10 10 8 7 6 4 6 6 8 8 7 6 5 4 4 2 2 2 3 4 4 6 10 9 6 6 7 8 8 10 11 13 17 18 18
10 10 10 10 8 9 10 9 6 6 5 5 4 1 2 1 2 2 7 7 7 2 1 2 2 3 2 3 5 8 8 4 5 6 7 8 8 9 13 14 15 19 20
11 10 8 8 6 3 3 3 4 4 3 3 3 3 3 3 5 3 3 2 3 1 0 2 2 4 1 2 3 4 4 4 4 5 6 7 7 8 11 10 12 14 15
8 6 5 5 6 5 5 3 1 4 1 4 3 3 4 5 5 5 4 3 4 2 2 2 2 1 1 2 3 4 4 4 5 6 6 8 9 8 10 10 10 12 12
7 4 5 5 6 6 5 4 10 7 0 4 4 6 2 7 8 4 6 8 6 7 2 2 3 1 1 2 3 4 4 7 6 7 6 7 8 8 9 11 10 11 12
4 3 3 4 4 6 5 4 5 7 13 14 11 10 8 8 7 7 8 7 7 7 2 2 2 1 1 1 3 3 4 6 7 6 6 7 8 8 10 9 10 10 11
3 3 2 2 3 3 4 4 5 5 5 4 8 5 7 7 8 8 8 6 3 3 1 3 2 2 1 1 3 4 4 5 6 6 6 7 8 8 8 8 8 10 10
1 0 2 3 3 5 5 5 5 5 5 5 4 2 3 5 7 6 4 0 1 2 3 3 3 2 1 2 3 3 4 4 5 6 6 6 7 8 8 7 8 12 11
1 3 3 3 4 5 5 6 6 6 7 6 6 5 4 3 2 1 2 2 2 2 3 3 3 2 1 2 3 2 3 4 5 5 6 7 7 7 8 8 8 8 8
2 2 4 4 4 5 5 6 6 6 6 6 5 6 9 5 4 3 3 2 3 3 3 3 3 2 2 1 1 2 2 3 4 5 6 7 7 8 8 7 8 8 7
3 4 4 4 4 4 5 5 7 7 6 6 4 4 5 3 4 3 3 3 3 3 3 3 2 2 1 1 1 1 2 3 4 5 6 7 7 7 7 8 8 7 9
4 4 4 3 4 5 3 3 4 6 7 6 6 5 4 4 3 4 4 2 3 3 3 3 3 3 2 2 1 0 2 3 3 4 5 6 7 7 7 7 8 7 8
3 3 4 5 5 5 5 6 6 6 5 4 5 6 6 6 5 5 4 4 4 4 4 3 3 4 4 3 2 2 2 2 3 3 5 5 6 7 6 6 7 9 8
2 3 4 4 5 5 5 5 6 6 5 6 6 6 7 7 7 6 5 5 5 5 5 4 3 5 5 5 4 4 3 4 5 5 3 4 5 7 6 6 7 7 10
3 2 2 3 4 4 5 5 5 5 6 6 7 7 8 8 8 7 6 6 6 6 6 5 5 7 7 4 4 3 3 4 4 4 2 3 4 4 5 6 9 6 8
Wind_Direction
183 179 175 180 176 171 179 187 175 172 185 184 185 202 207 219 210 208 227 240 236 249 234 230 243 213 228 222 214 218 216 196 240 269 243 270 283 283 295 295 293 291 296
187 182 181 176 173 180 180 181 169 178 171 175 188 205 216 227 226 221 229 237 238 246 253 238 249 224 232 230 221 228 229 213 220 273 286 280 261 284 288 287 285 288 286
181 179 178 178 182 178 208 182 160 170 171 195 196 202 213 205 229 230 226 237 236 238 247 244 252 225 239 232 227 236 234 237 223 246 272 270 276 283 281 275 279 277 277
181 183 179 165 98 79 8 32 346 215 201 218 216 211 220 214 196 225 229 238 245 248 243 235 248 233 241 245 238 237 237 240 237 245 263 276 279 278 272 281 286 275 280
185 181 140 130 129 130 110 333 278 233 220 219 224 226 229 220 221 216 222 239 248 253 247 250 247 245 253 248 239 253 234 240 245 253 265 279 284 280 274 290 285 287 281
168 159 144 150 156 153 173 211 213 240 218 210 222 209 223 216 224 225 221 234 245 248 259 262 253 268 272 271 265 255 245 244 250 254 271 274 280 277 282 277 286 292 295
158 151 157 165 171 174 192 206 216 213 220 213 220 213 227 221 219 236 236 229 236 241 250 270 289 275 286 292 292 287 283 268 252 271 274 270 281 280 281 279 282 281 278
160 163 169 174 185 195 202 206 217 213 217 214 202 221 222 226 207 236 229 236 240 235 231 240 249 284 288 287 292 292 288 295 291 286 268 274 280 280 275 278 279 277 278
168 173 178 181 185 195 222 215 213 198 201 201 207 221 217 228 210 242 240 238 246 239 230 239 238 265 296 311 282 294 305 302 299 281 273 273 278 279 271 282 281 293 287
172 178 177 179 184 198 185 193 162 120 114 86 316 308 266 258 228 248 212 171 247 246 228 254 249 286 313 118 266 287 294 294 307 307 301 301 297 289 283 272 280 292 291
161 169 170 177 185 187 156 155 138 138 153 172 185 178 224 258 263 261 240 181 205 221 238 255 269 264 187 205 235 257 260 292 296 297 303 314 314 308 301 297 288 289 287
154 151 150 155 156 170 168 167 170 177 185 182 183 166 191 202 267 273 201 193 161 207 232 222 233 252 202 272 292 279 289 297 297 307 317 323 310 308 303 298 293 288 289
145 149 148 158 159 171 173 180 187 192 190 158 156 224 270 151 277 88 137 169 178 190 254 237 272 264 222 294 310 315 306 308 320 326 327 314 306 299 297 297 300 299 307
144 148 157 157 143 121 68 92 145 164 138 173 186 202 184 173 200 179 153 131 75 218 284 349 150 143 95 12 339 321 306 316 332 323 318 308 301 309 308 308 307 315 320
142 137 131 133 131 112 74 34 21 50 352 172 169 169 174 196 195 170 176 183 198 150 98 114 148 150 286 324 324 315 327 336 349 340 328 321 314 316 313 319 315 322 324
123 133 148 145 139 133 137 116 50 39 332 155 118 123 98 100 126 175 218 211 164 153 134 169 172 205 297 353 327 334 337 351 348 335 332 326 314 319 319 320 325 329 326
118 164 160 150 141 154 161 157 121 58 61 56 85 101 89 125 103 76 71 99 131 146 140 154 177 173 59 342 338 339 328 337 327 340 340 333 326 321 330 326 330 325 329
186 189 156 157 138 139 134 144 128 133 130 107 45 67 98 102 113 117 121 104 119 76 140 170 139 119 123 9 347 331 331 337 342 344 341 339 333 326 331 332 331 329 326
340 96 175 182 155 139 139 135 136 129 121 122 117 88 108 104 107 92 83 46 175 144 137 131 137 157 135 16 343 321 331 338 339 341 345 343 340 334 328 332 328 333 332
115 163 159 139 143 140 143 140 142 151 154 164 172 173 160 148 168 140 77 109 130 138 150 163 170 158 86 13 326 333 346 348 350 353 348 344 340 340 339 340 342 339 338
131 145 159 151 154 146 153 152 156 168 170 178 186 182 179 172 167 155 164 170 184 179 172 179 172 130 81 0 333 22 1 347 349 348 346 348 346 346 344 350 353 355 348
165 176 182 169 140 148 168 169 169 168 165 178 185 200 196 164 159 169 181 190 202 222 179 160 130 121 127 163 107 31 356 355 352 349 347 346 347 352 349 355 5 7 7
167 186 168 147 142 138 143 149 160 181 176 179 172 180 182 216 206 189 184 187 167 167 143 133 138 155 169 170 146 15 344 1 345 333 338 341 345 356 359 0 1 8 15
126 139 161 162 152 165 176 191 198 189 182 196 190 197 204 198 205 214 191 179 175 170 152 148 168 185 185 192 205 238 284 319 319 319 325 333 347 356 9 11 10 13 19
136 156 166 165 171 182 185 191 195 200 206 213 210 210 208 200 202 201 189 186 184 177 174 171 180 189 196 202 217 236 287 308 296 312 329 350 6 14 15 22 24 24 31
126 147 169 178 186 194 200 211 215 215 209 193 197 200 202 203 204 196 185 188 188 188 188 188 192 188 186 200 226 256 308 317 340 332 347 23 27 27 33 35 35 39 37